Ely, MN

3:01 PM CDT on June 26, 2017 (GMT -0500)
Ely Municipal

Weather History for KELO - November, 2013

Change the Weather History Date:

Saturday, November 9, 2013

  Actual Average Record
Temperature  
Mean Temperature 32 °F -  
Max Temperature 33 °F 36 °F 64 °F (1999)
Min Temperature 32 °F 22 °F 3 °F (1998)
Degree Days  
Heating Degree Days 32    
Moisture  
Dew Point 31 °F    
Average Humidity 94    
Maximum Humidity 100    
Minimum Humidity 87    
Precipitation  
Precipitation 0.00 in - - ()
Sea Level Pressure  
Sea Level Pressure 29.71 in    
Wind  
Wind Speed 6 mph (WNW)    
Max Wind Speed 15 mph    
Max Gust Speed 23 mph    
Visibility 5 miles    
Events Rain , Snow    
Averages and records for this station are not official NWS values.
T = Trace of Precipitation, MM = Missing Value Source: NWS Daily Summary

Daily Weather History Graph

Daily Weather History Graph

Search for Another Location

Airport or City:

Trip Planner

Search our weather history database for the weather conditions in past years. The results will help you decide how hot, cold, wet, or windy it might be!

Date:

Astronomy

Nov. 09, 2013 Rise Set
Actual Time 7:04 AM CST 4:37 PM CST
Civil Twilight 6:31 AM CST 5:10 PM CST
Nautical Twilight 5:54 AM CST 5:47 PM CST
Astronomical Twilight 5:17 AM CST 6:23 PM CST
Moon 12:37 PM CST (11/9) 11:14 PM CST (11/9)
Length of Visible Light 10h 39m
Length of Day
9h 32m
Waxing Crescent, 44% of the Moon is Illuminated
Nov 9
Waxing Crescent
Nov 9
First Quarter
Nov 17
Full
Nov 25
Last Quarter
Dec 2
New

Hourly Weather History & Observations

Time (CST) Temp. Windchill Dew Point Humidity Pressure Visibility Wind Dir Wind Speed Gust Speed Precip Events Conditions
12:13 AM 33.8 °F 27.7 °F 32.0 °F 93% 29.59 in 4.0 mi ESE 6.9 mph - N/A   Overcast
12:33 AM 33.8 °F 28.6 °F 32.0 °F 93% 29.58 in 7.0 mi East 5.8 mph - N/A   Overcast
12:52 AM 33.8 °F 28.6 °F 32.0 °F 93% 29.57 in 5.0 mi ESE 5.8 mph - N/A   Overcast
1:13 AM 33.8 °F 28.6 °F 32.0 °F 93% 29.56 in 5.0 mi ESE 5.8 mph - N/A   Overcast
1:33 AM 33.8 °F 28.6 °F 32.0 °F 93% 29.56 in 5.0 mi ESE 5.8 mph - N/A   Overcast
1:53 AM 33.8 °F 30.8 °F 32.0 °F 93% 29.56 in 3.0 mi ESE 3.5 mph - N/A Snow Light Snow
2:13 AM 32.0 °F - 32.0 °F 100% 29.56 in 2.0 mi Calm Calm - N/A Snow Light Snow
2:33 AM 32.0 °F - 32.0 °F 100% 29.56 in 3.0 mi Calm Calm - N/A Snow Light Snow
2:53 AM 32.0 °F - 32.0 °F 100% 29.55 in 4.0 mi Calm Calm - N/A   Overcast
3:12 AM 32.0 °F - 32.0 °F 100% 29.55 in 2.5 mi Calm Calm - N/A Snow Light Snow
3:33 AM 32.0 °F - 32.0 °F 100% 29.55 in 3.0 mi Calm Calm - N/A   Overcast
3:53 AM 32.0 °F - 32.0 °F 100% 29.55 in 5.0 mi Calm Calm - N/A   Overcast
4:12 AM 32.0 °F - 32.0 °F 100% 29.55 in 5.0 mi Calm Calm - N/A   Overcast
4:33 AM 32.0 °F - 32.0 °F 100% 29.55 in 4.0 mi Calm Calm - N/A Snow Light Snow
4:53 AM 32.0 °F - 32.0 °F 100% 29.55 in 3.0 mi Calm Calm - N/A   Overcast
5:12 AM 32.0 °F - 32.0 °F 100% 29.56 in 1.8 mi Calm Calm - N/A   Overcast
5:33 AM 32.0 °F - 32.0 °F 100% 29.56 in 1.2 mi Calm Calm - N/A   Overcast
5:52 AM 32.0 °F - 32.0 °F 100% 29.56 in 1.8 mi Calm Calm - N/A   Overcast
6:13 AM 32.0 °F - 32.0 °F 100% 29.56 in 2.0 mi Calm Calm - N/A   Overcast
6:33 AM 32.0 °F - 32.0 °F 100% 29.57 in 2.0 mi Calm Calm - N/A Snow Light Snow
6:52 AM 32.0 °F - 32.0 °F 100% 29.57 in 2.5 mi Calm Calm - N/A Snow Light Snow
7:13 AM 32.0 °F 27.5 °F 32.0 °F 100% 29.58 in 3.0 mi West 4.6 mph - N/A Snow Light Snow
7:33 AM 32.0 °F 26.4 °F 32.0 °F 100% 29.59 in 3.0 mi West 5.8 mph - N/A Snow Light Snow
7:53 AM 32.0 °F 25.6 °F 32.0 °F 100% 29.59 in 3.0 mi West 6.9 mph - N/A Snow Light Snow
8:12 AM 32.0 °F 25.6 °F 32.0 °F 100% 29.60 in 4.0 mi WNW 6.9 mph - N/A   Overcast
8:33 AM 33.8 °F 27.7 °F 32.0 °F 93% 29.60 in 4.0 mi WNW 6.9 mph - N/A   Overcast
8:53 AM 33.8 °F 27.0 °F 32.0 °F 93% 29.60 in 5.0 mi WNW 8.1 mph - N/A   Overcast
9:12 AM 33.8 °F 27.0 °F 32.0 °F 93% 29.61 in 5.0 mi WNW 8.1 mph - N/A   Overcast
9:33 AM 33.8 °F 26.4 °F 32.0 °F 93% 29.62 in 5.0 mi West 9.2 mph - N/A   Overcast
9:53 AM 33.8 °F 25.8 °F 32.0 °F 93% 29.63 in 5.0 mi WNW 10.4 mph - N/A   Overcast
10:12 AM 33.8 °F 27.0 °F 32.0 °F 93% 29.63 in 4.0 mi West 8.1 mph - N/A   Overcast
10:33 AM 33.8 °F 26.4 °F 32.0 °F 93% 29.65 in 3.0 mi West 9.2 mph - N/A Snow Light Snow
10:53 AM 33.8 °F 26.4 °F 32.0 °F 93% 29.65 in 4.0 mi WNW 9.2 mph - N/A Snow Light Snow
11:12 AM 33.8 °F 27.0 °F 32.0 °F 93% 29.66 in 4.0 mi West 8.1 mph - N/A Snow Light Snow
11:33 AM 33.8 °F 27.7 °F 32.0 °F 93% 29.66 in 2.0 mi West 6.9 mph - N/A Snow Light Snow
11:53 AM 33.8 °F 26.4 °F 32.0 °F 93% 29.66 in 2.5 mi West 9.2 mph - N/A Snow Light Snow
12:12 PM 33.8 °F 27.0 °F 32.0 °F 93% 29.67 in 2.5 mi West 8.1 mph - N/A Snow Light Snow
12:33 PM 33.8 °F 26.4 °F 32.0 °F 93% 29.67 in 1.8 mi West 9.2 mph 17.3 mph N/A Snow Light Snow
12:53 PM 33.8 °F 26.4 °F 32.0 °F 93% 29.68 in 5.0 mi WNW 9.2 mph - N/A Snow Light Snow
1:12 PM 33.8 °F 25.3 °F 32.0 °F 93% 29.68 in 10.0 mi WNW 11.5 mph 17.3 mph N/A   Overcast
1:33 PM 33.8 °F 26.4 °F 32.0 °F 93% 29.69 in 7.0 mi WNW 9.2 mph 17.3 mph N/A Rain Light Rain
1:53 PM 33.8 °F 27.0 °F 32.0 °F 93% 29.70 in 7.0 mi West 8.1 mph - N/A Rain Light Rain
2:12 PM 33.8 °F 25.3 °F 32.0 °F 93% 29.71 in 5.0 mi WNW 11.5 mph 19.6 mph N/A Snow Light Snow
2:33 PM 33.8 °F 26.4 °F 32.0 °F 93% 29.72 in 10.0 mi WNW 9.2 mph 16.1 mph N/A   Overcast
2:53 PM 33.8 °F 26.4 °F 32.0 °F 93% 29.73 in 10.0 mi West 9.2 mph 19.6 mph N/A   Overcast
3:12 PM 33.8 °F 26.4 °F 32.0 °F 93% 29.74 in 4.0 mi West 9.2 mph - N/A Snow Light Snow
3:33 PM 33.8 °F 26.4 °F 30.2 °F 87% 29.75 in 10.0 mi WNW 9.2 mph 18.4 mph N/A   Overcast
3:50 PM 33.8 °F 25.3 °F 32.0 °F 93% 29.76 in 10.0 mi West 11.5 mph 19.6 mph N/A   Overcast
4:13 PM 32.0 °F 25.6 °F 30.2 °F 93% 29.78 in 4.0 mi West 6.9 mph - N/A Snow Light Snow
4:33 PM 33.8 °F 27.0 °F 30.2 °F 87% 29.79 in 7.0 mi West 8.1 mph - N/A   Overcast
4:52 PM 33.8 °F 24.3 °F 30.2 °F 87% 29.80 in 10.0 mi WNW 13.8 mph 20.7 mph N/A   Overcast
5:13 PM 33.8 °F 24.3 °F 30.2 °F 87% 29.81 in 10.0 mi WNW 13.8 mph 18.4 mph N/A   Overcast
5:33 PM 33.8 °F 27.0 °F 30.2 °F 87% 29.82 in 10.0 mi WNW 8.1 mph - N/A   Overcast
5:52 PM 33.8 °F 25.3 °F 30.2 °F 87% 29.83 in 7.0 mi West 11.5 mph 18.4 mph N/A Snow Light Snow
6:13 PM 33.8 °F 24.8 °F 30.2 °F 87% 29.84 in 3.0 mi WNW 12.7 mph 16.1 mph N/A Snow Light Snow
6:33 PM 32.0 °F 25.6 °F 30.2 °F 93% 29.85 in 3.0 mi WNW 6.9 mph - N/A Snow Light Snow
6:53 PM 32.0 °F 23.6 °F 32.0 °F 100% 29.85 in 3.0 mi WNW 10.4 mph 16.1 mph N/A Snow Light Snow
7:12 PM 32.0 °F 24.2 °F 30.2 °F 93% 29.86 in 4.0 mi WNW 9.2 mph - N/A Snow Light Snow
7:32 PM 32.0 °F 23.0 °F 30.2 °F 93% 29.87 in 3.0 mi WNW 11.5 mph 16.1 mph N/A Snow Light Snow
7:53 PM 32.0 °F 24.8 °F 30.2 °F 93% 29.88 in 4.0 mi WNW 8.1 mph - N/A Snow Light Snow
8:12 PM 32.0 °F 26.4 °F 30.2 °F 93% 29.89 in 4.0 mi WNW 5.8 mph - N/A Snow Light Snow
8:33 PM 32.0 °F 24.8 °F 30.2 °F 93% 29.90 in 2.0 mi WNW 8.1 mph - N/A Snow Light Snow
8:53 PM 32.0 °F 26.4 °F 30.2 °F 93% 29.91 in 2.5 mi WNW 5.8 mph - N/A Snow Light Snow
9:12 PM 32.0 °F 23.6 °F 30.2 °F 93% 29.92 in 2.5 mi NW 10.4 mph - N/A Snow Light Snow
9:33 PM 32.0 °F 25.6 °F 30.2 °F 93% 29.93 in 4.0 mi WNW 6.9 mph - N/A Snow Light Snow
9:53 PM 32.0 °F 25.6 °F 30.2 °F 93% 29.95 in 4.0 mi WNW 6.9 mph - N/A Snow Light Snow
10:13 PM 32.0 °F 24.2 °F 30.2 °F 93% 29.95 in 3.0 mi WNW 9.2 mph - N/A Snow Light Snow
10:32 PM 32.0 °F 24.2 °F 30.2 °F 93% 29.97 in 5.0 mi NW 9.2 mph 17.3 mph N/A Snow Light Snow
10:53 PM 32.0 °F 23.6 °F 30.2 °F 93% 29.98 in 5.0 mi NW 10.4 mph - N/A Snow Light Snow
11:12 PM 32.0 °F 24.8 °F 30.2 °F 93% 29.99 in 7.0 mi NW 8.1 mph 18.4 mph N/A Snow Light Snow
11:33 PM 32.0 °F 21.6 °F 30.2 °F 93% 30.00 in 5.0 mi NW 15.0 mph 23.0 mph N/A Snow Light Snow
11:53 PM 32.0 °F 22.1 °F 28.4 °F 87% 30.01 in 10.0 mi NW 13.8 mph 20.7 mph N/A   Mostly Cloudy